Location: Newark
(47.9617°N, 8.0103°E)
Time: 12:37:06
(UTC+00:00)

ISS - Visible Passes

Search period start: 15 December 2019 00:00
Search period end: 25 December 2019 00:00
Orbit: 411 x 421 km, 51.6° (Epoch: 15 December)

Date Brightness Start Highest point End Pass type
(mag) Time Alt. Az. Time Alt. Az. Time Alt. Az.
20 Dec -0.3 06:09:06 10° SSE 06:10:31 12° SE 06:11:57 10° ESE visible
22 Dec -1.5 06:06:53 10° SSW 06:09:45 27° SE 06:12:39 10° E visible
23 Dec -0.9 05:19:01 10° S 05:21:21 18° SE 05:23:41 10° E visible
24 Dec -0.6 04:31:50 10° SSE 04:32:58 11° SE 04:34:06 10° ESE visible
24 Dec -3.2 06:05:51 10° SW 06:09:08 60° SSE 06:12:25 10° ENE visible
